{"data":{"norad_id":60031,"intl_designator":"2024-111R","name":"STARLINK-31878","alt_names":[],"object_type":"PAYLOAD","status":"ACTIVE","operator":null,"country":"US","launch_date":"2024-06-08","launch_site_code":"AFETR","launch_vehicle":null,"mission":null,"orbit_class":"UNKNOWN","rcs_meters":null,"size_class":null,"mass_kg":null,"dimensions":null,"purposes":["comms"],"wikipedia_slug":null,"has_3d_model":false,"image_url":null,"decayed_at":null,"tle_current":{"epoch":"2026-09-21T12:23:56.532192Z","epoch_age_seconds":89810,"freshness":"FRESH","line1":"1 60031U 24111R   26264.51662653  .00001869  00000+0  66432-4 0  9991","line2":"2 60031  53.1601 190.6625 0001505  86.3798 273.7377 15.34404511129544","mean_motion":15.34404511,"eccentricity":0.0001505,"inclination_deg":53.1601,"raan_deg":190.6625,"arg_perigee_deg":86.3798,"mean_anomaly_deg":273.7377,"bstar":6.6432e-5,"rev_number":12954,"period_min":93.847482178055,"perigee_km":461.660288159,"apogee_km":463.71937703561,"semimajor_km":6840.8268325973,"source":"CELESTRAK","updated_at":"2026-09-22T09:00:49.140277Z"}}}